{"data":{"norad_id":68577,"intl_designator":"2026-072E","name":"KUIPER-00194","alt_names":[],"object_type":"PAYLOAD","status":"ACTIVE","operator":null,"country":"US","launch_date":"2026-04-04","launch_site_code":"AFETR","launch_vehicle":null,"mission":null,"orbit_class":"UNKNOWN","rcs_meters":null,"size_class":null,"mass_kg":null,"dimensions":null,"purposes":[],"wikipedia_slug":null,"has_3d_model":false,"image_url":null,"decayed_at":null,"tle_current":{"epoch":"2026-05-25T04:00:03.998880Z","epoch_age_seconds":60700,"freshness":"FRESH","line1":"1 68577U 26072E   26145.16671295 -.00078009  00000+0 -83388-2 0  9992","line2":"2 68577  51.8961 292.6248 0004163 316.3116 293.3473 14.88698019  4956","mean_motion":14.88698019,"eccentricity":0.0004163,"inclination_deg":51.8961,"raan_deg":292.6248,"arg_perigee_deg":316.3116,"mean_anomaly_deg":293.3473,"bstar":-0.0083388,"rev_number":495,"period_min":96.728818176791,"perigee_km":599.0966488767,"apogee_km":604.90831300853,"semimajor_km":6980.1394809426,"source":"CELESTRAK","updated_at":"2026-05-25T13:38:07.946028Z"}}}